RH
100 99 99 99 99 99 97 97 98 99 99 99 100 99 99 99 98 99 93 81 68 54 47 45 43 39 34 33 37 34 32 43 48 42 39 27 16 17 15 15 15 10 7 13 21 22 20 20 25 28 29 30 33 33 30 30 29 38 56 69 71 74 74 62 66 75 74 82 81 74 66 62 64 61 56 48 42 39 35 30 25 24 23 27 32 33 35 36
99 99 100 99 99 99 98 98 99 100 99 99 100 100 100 99 99 97 80 61 53 47 44 43 40 37 34 33 36 37 47 63 55 35 27 23 17 14 12 13 12 6 6 14 19 20 21 20 22 22 23 29 31 29 31 29 29 43 56 65 67 63 63 56 60 70 72 78 78 73 65 59 61 58 50 49 47 41 35 29 24 27 29 31 32 34 35 36
101 100 97 97 98 99 100 100 99 100 99 98 97 98 100 99 97 86 65 50 45 41 40 37 34 35 34 33 34 41 61 64 43 28 24 21 19 15 13 11 7 4 5 14 18 18 21 20 18 16 20 28 29 28 30 27 32 43 51 73 74 53 55 60 63 69 68 70 74 74 66 62 60 52 49 51 48 40 35 30 29 34 34 33 32 33 35 36
91 90 82 80 81 82 92 98 100 100 99 99 97 97 97 90 81 65 51 44 38 34 30 26 26 30 33 33 32 45 62 50 30 26 24 22 20 16 15 12 6 3 4 12 18 19 20 18 15 13 17 24 26 26 28 25 31 38 45 64 60 45 60 73 69 64 62 66 72 72 68 66 60 54 52 49 46 40 35 30 31 35 34 34 32 33 35 35
65 69 64 60 58 58 66 78 85 84 83 83 83 82 77 68 58 48 44 39 32 28 23 22 24 27 30 27 30 53 57 32 21 25 24 20 17 15 13 9 4 2 6 12 18 21 19 16 14 14 16 22 25 25 26 23 24 30 35 42 42 45 64 79 76 63 60 68 72 70 68 64 57 61 60 53 53 42 33 30 28 31 31 32 31 31 34 33
45 51 51 48 46 47 48 52 58 60 59 58 56 55 52 49 43 39 38 33 29 24 22 22 24 28 26 21 34 58 47 19 17 21 18 16 13 14 12 6 3 4 10 12 19 22 18 15 14 15 16 18 23 24 24 21 23 31 38 43 43 49 63 78 79 68 64 67 73 66 62 61 57 66 64 60 63 43 30 28 25 29 28 29 30 30 32 31
36 40 43 41 39 41 42 41 43 45 45 44 44 43 41 40 35 33 31 29 27 21 22 21 25 31 24 26 45 54 37 17 20 22 14 13 13 14 10 4 2 7 14 15 21 23 16 14 15 15 15 16 19 20 21 22 23 28 38 48 48 52 64 73 76 76 69 65 70 64 61 63 59 66 64 66 67 40 27 26 23 27 26 27 29 29 31 30
33 35 36 37 36 36 37 36 36 37 37 36 36 35 34 32 29 28 26 25 23 20 19 18 28 32 29 44 46 35 28 17 24 29 15 11 14 12 7 6 8 13 18 18 20 21 15 14 15 14 14 15 16 17 21 23 26 28 36 46 52 60 67 68 71 76 72 67 68 66 67 63 56 61 64 71 65 36 26 26 23 25 25 26 27 28 29 27
31 32 32 33 33 32 32 32 32 32 32 31 29 29 28 27 26 26 23 22 21 20 16 17 30 31 39 62 45 21 21 13 20 30 21 17 14 8 7 11 13 14 18 21 21 19 15 14 13 12 14 13 13 17 20 24 30 33 39 46 53 68 74 72 73 74 75 72 67 71 79 72 60 59 62 64 51 30 27 26 23 25 25 26 27 27 27 26
30 30 30 30 30 29 29 29 29 30 30 29 27 27 26 25 25 23 22 22 20 18 14 18 26 31 48 59 40 22 17 10 13 23 24 24 16 9 10 12 12 12 16 20 20 17 15 14 11 9 11 11 13 16 19 25 29 33 42 48 54 70 77 75 74 73 75 73 67 73 83 76 64 59 56 50 35 27 28 25 24 25 25 26 26 26 25 26
29 28 27 27 27 27 27 27 27 28 30 29 26 25 24 24 24 23 23 22 21 16 15 19 18 37 58 48 31 21 10 7 10 16 22 20 15 11 10 10 9 10 13 16 16 16 15 12 9 8 9 10 13 17 18 21 26 35 47 55 61 68 73 72 72 71 73 75 70 70 76 70 60 59 53 41 31 29 27 26 25 24 26 25 26 26 25 26
28 27 25 24 25 25 25 25 25 26 29 30 27 23 22 23 23 23 24 23 22 16 16 18 17 44 63 41 27 17 6 6 8 16 20 15 14 10 8 10 8 8 12 13 12 12 13 12 10 9 9 10 14 17 18 18 23 34 47 61 68 68 72 73 71 72 73 77 71 64 71 72 66 62 51 38 31 30 30 29 27 25 26 25 25 26 25 27
27 25 24 22 22 22 23 23 23 24 28 30 29 24 21 22 23 24 25 25 23 18 19 18 24 55 63 36 19 9 5 6 7 16 17 15 15 11 10 12 9 8 10 11 10 11 11 11 11 9 8 9 13 16 17 18 19 29 44 58 68 73 77 73 71 75 73 73 68 60 68 79 76 62 48 40 33 32 33 31 29 26 25 25 26 26 26 27
27 24 22 21 21 21 21 21 21 23 26 28 28 26 22 21 23 26 28 27 25 23 24 24 35 59 58 33 14 5 6 6 9 17 16 16 16 13 13 12 10 9 10 11 11 11 10 10 10 9 9 8 11 12 14 19 18 27 43 52 59 69 76 75 75 77 73 71 68 64 71 76 75 65 49 41 39 37 34 31 30 28 25 25 25 26 26 27
26 24 22 20 19 19 19 20 20 22 25 26 27 27 25 24 26 31 30 29 30 27 28 40 53 58 45 28 13 5 5 6 12 16 15 15 14 13 12 10 11 10 11 13 12 12 10 11 11 10 10 9 10 12 15 21 19 24 38 48 51 56 72 80 74 70 70 72 75 76 79 76 70 67 55 44 44 41 36 33 30 27 27 25 25 26 26 27
25 23 22 20 19 18 18 19 19 21 25 25 28 29 28 28 30 36 35 31 33 32 39 54 60 52 36 19 8 5 7 9 13 16 14 12 11 10 10 9 10 11 12 13 13 13 11 12 11 10 10 9 11 13 19 23 21 22 26 37 47 54 75 81 69 68 66 70 82 81 79 78 68 63 58 50 46 42 37 35 30 28 29 26 25 26 26 28
24 22 21 19 18 17 17 18 18 20 24 25 28 30 31 34 36 40 40 36 39 46 52 51 43 39 29 11 5 9 12 13 14 14 13 12 11 10 9 9 8 9 11 11 12 11 12 13 11 10 10 10 10 13 22 28 26 24 20 25 41 52 67 73 72 78 69 65 77 74 71 75 67 62 62 55 49 44 38 37 33 28 29 29 26 26 27 28
23 21 21 19 17 17 16 17 17 19 23 25 27 31 38 45 46 47 50 49 54 60 55 44 38 33 22 10 9 11 11 13 13 12 12 12 12 10 8 8 7 8 9 10 11 9 11 12 10 11 9 9 10 12 23 27 23 24 24 27 42 52 58 67 73 73 64 62 68 68 68 74 74 72 66 57 53 48 39 36 35 31 30 30 27 27 28 27
23 21 20 19 17 16 16 16 17 17 21 24 27 37 52 59 59 58 58 54 53 48 35 30 33 25 14 9 9 10 10 12 13 12 11 12 12 10 8 7 6 7 8 9 9 8 9 10 11 11 9 8 9 12 17 18 18 21 24 29 44 55 55 60 65 60 57 63 65 62 68 79 85 82 69 56 53 53 51 43 36 34 33 32 29 28 29 28
23 21 19 18 17 15 15 15 15 16 19 23 30 44 50 45 44 45 44 43 39 27 14 13 17 11 9 10 9 10 11 11 13 13 12 12 12 10 8 7 6 6 7 7 6 6 7 10 12 10 9 8 7 10 12 13 15 16 22 30 42 51 53 57 61 56 51 60 64 59 69 85 85 84 73 57 55 60 63 56 42 36 36 34 30 29 30 28
21 20 18 17 16 15 14 15 15 16 17 21 32 41 32 19 21 23 23 27 23 14 9 9 9 7 8 8 8 8 9 10 12 13 13 12 12 12 11 9 8 7 6 5 4 5 7 10 11 8 7 7 6 9 11 14 14 15 24 33 46 60 66 66 64 57 53 63 72 66 75 87 80 81 74 57 60 64 61 57 46 37 37 39 34 31 32 28
21 20 18 16 16 14 13 14 14 15 16 24 35 35 21 12 16 16 16 19 15 8 9 9 9 9 9 9 8 7 9 11 12 14 13 11 11 13 12 11 9 7 5 5 4 5 7 9 8 7 6 7 6 7 9 14 14 18 27 32 47 70 80 76 67 65 69 73 78 75 80 86 77 79 74 57 59 66 62 56 51 43 40 40 36 35 34 29
23 20 18 16 15 14 14 14 14 15 17 27 34 26 16 14 15 15 16 19 17 9 7 8 9 9 9 10 8 7 10 12 13 15 12 10 12 12 11 11 11 9 5 4 5 6 7 8 6 6 6 6 6 6 8 14 14 16 28 31 39 59 70 70 67 70 76 74 69 68 75 84 82 82 82 68 57 63 69 64 65 64 53 45 37 36 38 32
27 24 21 17 15 14 14 13 13 16 18 24 27 19 14 14 15 17 17 19 19 10 6 7 7 8 8 7 7 8 11 13 13 14 11 10 11 11 11 10 10 10 7 4 4 5 6 6 5 5 6 6 6 7 9 15 15 13 21 24 30 46 49 52 63 68 69 65 58 61 73 83 84 84 86 79 65 66 72 69 75 77 64 56 46 39 42 36
32 31 26 18 16 15 15 16 16 18 19 22 23 17 13 14 16 18 19 21 20 11 6 7 7 8 9 7 9 10 11 12 12 12 11 10 10 10 9 8 10 11 9 6 4 5 5 5 5 4 5 6 5 8 12 15 16 14 16 14 20 33 34 41 59 67 67 63 57 64 79 80 77 81 81 80 79 75 72 69 72 76 69 63 55 44 42 39
34 34 29 24 20 15 19 24 21 17 16 16 16 13 12 15 19 19 20 24 19 9 7 7 7 9 9 8 9 9 11 12 11 12 11 10 9 9 10 8 8 10 8 6 5 4 5 4 5 5 5 7 6 9 14 16 18 18 14 10 12 18 33 51 59 62 66 61 52 55 71 79 81 85 78 76 84 79 75 74 70 77 77 66 59 51 43 40
31 32 30 28 22 19 24 24 17 14 15 12 12 12 12 16 21 20 25 28 16 6 7 6 6 8 9 8 7 10 15 13 11 10 8 9 9 9 13 10 7 9 7 7 7 6 5 5 5 5 5 7 8 12 16 15 18 18 11 9 10 15 34 51 52 53 54 53 55 50 56 76 83 81 76 73 79 77 75 77 71 75 80 69 61 56 47 42
27 29 29 27 24 23 22 20 19 16 14 12 12 13 12 17 20 19 31 33 14 5 8 5 5 7 7 7 6 9 13 11 12 10 6 8 10 9 13 11 8 8 6 8 10 6 5 5 5 6 8 11 12 13 14 12 13 14 10 8 9 16 25 32 38 44 44 52 67 58 53 73 72 62 70 74 74 74 73 72 71 75 78 72 65 56 47 42
24 26 27 26 22 19 16 22 28 20 13 13 14 15 14 16 17 20 34 31 10 5 8 5 6 6 6 7 7 8 9 10 12 11 8 9 10 10 11 12 10 9 7 8 9 6 4 4 5 7 11 14 13 13 11 11 12 10 9 9 9 14 17 20 26 30 37 50 61 57 53 66 68 61 69 80 78 73 69 66 67 71 75 72 64 55 47 41
23 25 27 25 23 26 30 36 33 21 16 17 16 16 15 15 19 29 36 23 6 6 7 6 6 5 5 7 7 8 8 10 10 10 11 10 9 9 10 11 11 10 8 7 8 7 5 4 6 10 12 12 11 12 10 10 11 8 9 10 10 11 11 14 16 16 28 35 35 42 41 44 65 72 68 75 76 64 60 64 64 65 70 70 61 53 48 43
23 25 27 25 23 29 35 31 22 18 19 19 17 16 16 18 24 34 30 12 6 9 5 5 6 4 5 6 7 8 8 9 9 11 13 12 11 11 10 12 12 12 12 9 9 9 7 6 8 9 10 11 10 10 9 9 9 8 9 10 12 13 12 13 15 15 25 27 20 26 30 33 54 68 63 63 61 52 52 58 62 63 65 67 60 52 50 45
24 26 26 23 20 20 21 16 13 17 20 18 18 16 18 24 27 28 18 6 9 10 4 5 5 4 5 5 7 7 8 9 9 11 13 13 14 12 11 13 13 15 15 12 10 9 8 8 9 9 9 9 10 10 10 9 8 9 10 12 16 19 18 18 21 20 22 23 16 15 23 32 41 47 52 57 53 49 49 49 54 57 58 61 59 55 53 46
24 26 22 19 16 14 12 12 15 20 20 18 18 15 20 28 24 14 8 6 9 7 4 5 5 5 6 6 8 6 7 9 8 10 12 12 15 13 11 11 11 14 16 14 12 10 9 9 8 11 11 9 10 11 11 11 10 12 12 14 19 21 21 22 21 21 20 18 16 13 16 29 43 45 42 47 50 47 49 49 46 48 53 57 57 58 57 51
24 24 20 15 12 9 9 11 16 20 19 18 18 17 24 29 17 7 8 7 6 5 6 6 5 7 7 7 9 7 6 9 8 9 11 11 14 15 14 12 10 12 14 14 14 10 10 11 10 12 12 10 10 9 9 9 9 12 10 11 16 17 19 21 19 19 20 18 14 13 14 24 48 54 39 36 41 43 51 57 50 47 50 52 52 55 56 54
21 18 15 14 11 8 9 10 13 18 19 18 19 21 25 22 11 7 9 5 5 7 5 6 7 8 9 8 7 7 8 11 10 10 11 12 14 16 15 13 11 11 12 15 16 13 12 11 9 11 11 9 9 9 8 8 8 10 9 11 13 12 14 17 16 15 17 20 15 14 24 31 40 50 46 39 39 43 56 62 57 53 51 52 54 56 56 54
19 20 18 18 17 14 13 14 15 19 20 18 21 24 19 12 7 7 8 5 6 7 5 8 9 9 11 9 9 9 9 11 12 13 15 15 15 15 14 12 10 10 11 14 16 16 15 12 8 10 11 8 9 9 8 9 10 9 10 12 10 8 11 14 15 14 15 22 20 15 33 45 39 44 56 57 51 50 58 62 58 56 62 70 71 69 68 61
23 27 22 18 18 16 16 18 18 20 18 17 24 24 12 7 7 6 6 6 5 6 7 10 10 9 10 10 11 11 9 14 16 15 18 19 17 14 11 11 10 9 10 11 14 15 15 15 11 9 12 9 8 9 8 8 8 9 10 10 9 8 11 13 15 16 16 22 22 14 29 45 39 42 54 61 66 65 64 66 56 50 63 75 76 75 71 62
31 28 20 15 14 13 14 16 18 17 17 18 24 22 10 6 7 5 6 6 5 7 8 10 10 8 9 10 11 9 10 17 18 16 19 20 19 16 11 11 10 9 9 9 14 14 12 17 13 8 11 10 7 9 9 7 6 8 8 6 9 11 13 14 15 17 18 21 22 16 25 40 40 44 44 45 64 73 68 69 59 49 57 65 71 76 71 62
33 25 19 15 11 11 13 16 17 16 17 20 21 16 8 5 6 5 6 5 6 8 8 10 10 9 8 9 10 9 9 12 14 18 22 20 21 20 13 11 10 10 9 9 12 12 11 18 17 10 9 9 9 10 10 9 6 7 8 6 7 8 9 12 12 15 17 20 21 17 26 41 46 52 47 42 62 71 63 64 59 53 57 60 67 73 66 61
25 19 17 13 10 11 13 15 16 15 17 19 17 10 6 6 6 6 6 5 5 7 8 9 9 11 11 9 10 9 9 9 9 14 18 14 16 18 12 10 11 11 10 9 11 11 11 17 20 15 10 9 11 10 10 10 7 7 9 8 8 7 7 8 9 12 14 18 21 20 32 47 48 54 56 56 70 70 61 61 56 52 55 53 58 63 59 56
22 21 18 12 12 13 12 13 15 15 17 16 13 8 6 8 7 5 5 5 5 6 6 7 9 10 10 10 11 10 8 10 9 9 12 10 12 15 12 10 11 10 11 11 11 12 13 17 21 19 15 12 11 8 8 8 6 7 8 8 9 7 7 9 10 11 9 13 18 19 36 53 47 49 58 61 66 64 61 65 58 52 53 50 52 54 53 54
23 23 17 11 12 12 10 12 14 13 12 11 10 7 7 8 5 4 5 5 5 6 5 7 8 9 11 12 11 10 9 10 10 10 11 10 10 12 10 9 9 9 11 12 10 12 14 17 22 22 17 14 11 8 8 7 5 6 5 6 7 5 7 10 11 12 8 11 14 12 34 58 48 45 57 59 58 56 58 63 60 57 54 53 56 54 53 54
20 19 14 11 13 11 10 14 16 13 8 7 8 6 5 6 4 4 6 5 5 6 6 8 8 8 11 11 10 11 11 11 11 11 10 10 9 9 8 9 8 8 10 12 13 15 17 20 26 27 21 16 13 12 10 6 5 6 5 5 6 6 8 7 8 11 8 11 12 6 28 62 62 56 63 64 62 61 61 61 60 61 60 59 65 67 64 60
19 18 13 12 12 10 11 14 15 12 9 8 8 6 5 5 4 5 6 6 6 5 6 8 9 8 9 9 10 11 12 13 14 12 11 11 9 8 7 7 7 8 10 14 15 15 18 25 30 32 31 27 20 16 14 8 5 7 6 5 5 5 7 6 6 9 8 11 11 9 35 69 74 70 75 76 74 72 71 68 65 65 63 61 68 77 79 75
23 20 13 11 11 9 10 11 11 12 11 10 9 8 7 5 6 6 6 6 5 4 6 7 7 8 7 7 9 9 10 12 13 13 13 11 9 8 7 7 8 8 11 16 17 13 17 25 29 35 44 45 35 26 23 16 9 7 6 5 6 5 5 6 6 9 13 12 9 20 52 72 66 63 72 79 82 82 81 80 74 68 62 59 68 81 85 84
21 19 12 10 8 7 8 8 8 10 10 10 9 8 7 6 7 7 5 5 6 5 6 6 6 7 7 9 10 11 12 10 10 16 16 13 14 11 7 8 7 9 15 18 15 12 15 20 24 32 40 42 37 30 25 20 15 11 7 6 7 6 6 8 7 10 13 10 15 36 60 65 58 55 62 71 77 81 84 85 80 75 70 67 72 79 81 81
18 19 14 13 13 10 9 7 7 8 7 8 10 9 7 6 8 8 5 6 7 6 5 5 6 6 8 12 12 13 16 13 12 16 15 15 18 15 11 9 8 15 23 18 11 12 16 19 22 26 29 30 28 25 20 17 17 13 10 10 11 7 5 6 7 10 11 9 26 48 54 53 56 54 55 62 67 70 76 80 81 79 75 76 80 81 80 81
19 19 12 12 15 11 9 8 7 7 6 6 8 9 8 7 7 8 8 7 7 6 6 7 9 8 7 10 11 14 18 19 18 18 17 17 18 16 17 13 9 15 18 11 10 12 16 21 23 23 25 24 22 20 17 15 16 16 15 22 27 22 16 9 4 8 11 9 23 44 47 48 53 51 51 57 60 61 63 66 71 75 73 76 83 84 83 85
22 23 17 16 17 11 10 10 8 7 8 8 9 9 8 8 8 8 8 8 8 8 8 8 10 10 8 9 11 13 17 21 21 21 20 19 16 16 19 17 13 13 11 9 12 12 16 26 27 23 24 24 21 20 17 15 20 26 27 31 35 34 31 22 8 4 11 15 23 40 50 49 46 45 48 51 53 55 59 60 64 71 76 81 85 86 86 88
25 28 29 27 22 16 10 10 10 9 9 11 11 9 9 9 9 9 8 8 10 12 10 8 10 10 8 9 12 12 14 18 20 21 20 20 18 17 19 19 17 14 12 12 13 12 19 28 27 23 24 26 24 20 17 18 24 33 37 34 33 36 40 38 25 18 29 35 32 40 53 54 47 46 50 53 55 58 60 61 63 67 76 84 87 88 88 87
27 25 30 31 26 20 14 10 11 10 9 11 10 9 10 10 8 10 10 8 9 12 11 9 10 10 8 9 11 11 12 12 14 15 15 15 16 15 17 18 16 15 16 15 14 14 18 27 30 29 31 33 28 22 22 24 25 33 39 38 40 48 53 53 45 41 48 49 41 45 58 60 53 51 54 56 57 59 62 66 71 78 85 86 85 89 88 82
35 30 33 35 28 23 17 12 11 10 9 10 10 9 10 9 8 10 12 12 10 10 9 9 9 9 10 13 13 12 11 9 8 10 10 10 10 11 13 13 12 14 16 15 15 15 15 22 29 32 35 35 28 23 25 29 37 45 41 37 44 54 57 57 51 45 48 50 50 56 62 60 56 55 57 57 60 68 76 80 83 89 93 90 87 89 88 81
Wind_Speed
12 12 12 12 12 12 13 12 12 12 11 11 11 11 11 11 11 11 10 10 10 10 11 12 12 13 12 12 12 12 13 13 14 13 16 13 7 9 11 10 11 11 10 11 13 12 12 13 13 12 11 9 7 7 8 7 4 3 1 0 2 2 2 3 8 6 5 7 6 6 5 6 8 4 5 8 7 9 8 8 11 14 16 19 23 27 27 25
12 12 12 12 12 12 12 12 12 12 12 12 11 12 11 11 11 11 10 9 9 10 10 11 12 12 11 10 11 11 14 16 17 18 22 18 10 10 12 12 12 10 10 13 15 14 12 10 10 11 9 7 7 7 6 4 2 2 1 0 3 1 1 4 9 8 6 10 8 6 7 7 9 7 5 8 9 10 9 10 15 17 20 22 24 25 24 24
12 13 13 13 13 12 12 12 12 12 12 12 12 12 12 11 11 10 9 9 9 9 10 11 12 12 11 9 10 9 13 17 15 13 14 16 17 16 16 16 14 10 13 16 16 14 11 10 9 9 8 7 7 6 6 3 2 2 1 0 3 2 5 7 9 8 7 12 11 7 7 6 7 7 6 8 10 10 10 13 16 19 21 21 21 22 23 23
13 13 14 14 14 13 13 12 12 12 12 12 12 12 11 11 11 10 9 9 8 8 9 11 12 12 10 9 8 9 12 14 6 2 2 8 15 16 16 16 14 12 15 18 17 14 12 12 10 9 9 7 7 7 6 4 3 3 2 2 1 6 8 9 7 8 10 12 10 7 7 6 6 4 4 10 10 9 10 13 17 19 21 21 20 20 21 21
14 14 14 15 15 15 14 13 13 13 13 12 12 11 11 10 9 9 9 8 8 9 10 11 12 11 9 8 6 8 10 6 3 7 5 4 8 9 10 12 13 13 15 18 18 16 13 12 10 8 8 7 8 6 6 6 5 3 3 3 6 8 10 11 5 7 12 10 8 8 9 6 7 3 1 6 7 6 10 13 17 19 20 21 20 19 19 19
14 14 14 15 15 15 15 14 14 13 13 12 12 11 10 9 8 9 8 9 8 9 10 10 11 10 9 8 6 6 8 3 4 6 2 3 4 6 7 10 12 12 14 15 16 15 12 11 10 8 7 8 10 7 6 5 3 3 3 6 10 9 12 12 6 6 8 10 9 7 7 5 6 6 2 5 2 5 11 14 18 19 20 22 20 18 18 17
15 15 15 16 16 16 16 16 15 14 14 12 11 10 10 9 7 8 8 8 9 9 9 9 10 9 9 8 6 6 9 7 3 4 4 4 4 6 5 10 12 13 14 14 14 13 10 11 10 8 7 8 10 8 6 4 4 5 3 11 11 12 16 12 8 7 5 9 8 4 5 5 6 7 5 3 6 7 13 14 18 19 20 21 19 18 17 17
15 16 16 16 16 16 16 16 16 15 14 13 11 10 10 9 8 7 8 8 8 9 8 9 8 7 8 8 7 6 9 5 5 4 6 4 4 4 7 10 12 14 14 15 14 11 10 11 11 8 9 10 9 6 4 4 5 3 6 11 10 13 16 10 8 9 7 7 6 5 5 5 7 6 6 4 10 8 14 15 18 19 19 19 17 18 16 16
16 16 16 16 16 16 16 17 16 15 14 12 11 10 10 9 8 8 7 8 8 8 8 9 7 5 7 6 8 6 3 3 6 2 4 2 2 4 11 10 13 14 13 14 14 13 10 8 10 9 10 11 10 7 4 4 2 6 10 8 10 16 14 8 8 9 7 5 6 8 6 3 4 5 9 10 11 11 14 16 19 18 18 17 16 17 15 15
18 17 17 17 17 17 17 17 17 15 14 12 11 10 10 9 9 8 8 8 8 8 8 7 6 5 7 7 9 5 2 5 4 1 2 3 4 9 12 11 13 15 13 13 14 14 10 8 9 8 10 11 9 8 6 3 2 11 14 10 12 17 13 8 9 10 7 5 7 9 6 2 2 2 7 11 11 14 16 17 18 17 17 16 16 15 14 14
18 18 18 17 17 17 18 18 17 16 14 13 11 10 9 9 9 9 8 7 7 7 7 7 5 5 9 9 8 4 3 5 6 2 2 6 8 11 12 11 13 15 14 12 12 13 12 11 9 6 6 6 7 10 6 6 7 10 15 15 13 14 11 8 9 9 7 4 5 8 8 4 2 3 7 10 11 13 16 17 17 17 15 15 16 14 12 13
19 19 18 17 18 18 18 19 18 16 15 13 12 11 10 9 9 10 9 7 6 5 6 6 4 5 9 10 9 4 4 6 5 3 3 6 9 10 11 11 12 15 14 11 11 12 13 12 10 10 6 4 7 8 4 5 9 11 15 14 11 10 8 7 9 7 4 4 7 8 9 5 3 6 9 10 11 12 14 15 16 16 15 14 15 12 11 12
19 19 18 18 18 18 18 19 18 17 15 14 13 11 11 10 10 10 9 8 6 5 5 4 4 5 9 7 3 2 5 6 4 4 6 7 9 10 10 11 11 14 14 13 10 10 12 12 11 12 9 8 8 4 5 4 7 9 12 11 8 6 3 4 6 6 4 6 9 5 5 5 4 7 10 10 11 12 13 14 14 14 14 14 13 11 11 13
19 19 19 18 17 18 18 19 18 17 15 15 14 12 11 10 10 10 9 8 6 4 3 4 5 5 8 7 3 4 5 5 4 6 8 8 9 8 9 10 10 13 14 13 11 9 10 10 9 9 9 10 10 7 7 6 7 6 10 8 6 4 4 6 6 8 7 6 4 1 3 7 7 8 8 9 11 12 13 14 14 13 13 13 12 11 12 13
18 19 19 18 18 18 18 18 18 16 15 16 15 14 12 10 10 10 9 7 6 5 4 7 7 5 7 7 2 4 4 7 7 8 7 8 9 7 8 10 10 12 11 10 11 8 7 5 6 7 7 10 11 9 7 6 7 7 7 6 6 5 5 7 9 10 8 7 5 0 3 6 7 9 7 8 11 11 12 13 14 14 14 14 12 11 12 12
19 19 19 18 18 17 17 18 18 16 16 16 17 15 13 12 11 11 10 6 6 6 4 7 9 10 7 3 2 1 5 8 7 7 6 7 8 6 8 8 9 10 10 10 8 6 5 6 7 7 8 10 9 8 7 6 7 7 7 5 6 6 5 6 8 8 6 8 8 4 3 5 7 9 6 8 11 11 12 12 14 15 14 14 12 11 11 11
19 19 19 19 18 17 17 17 17 17 16 17 18 15 13 13 12 12 9 5 6 6 7 9 9 9 7 4 2 4 3 3 5 7 7 7 6 5 8 8 9 10 10 10 7 5 5 7 6 6 8 8 8 8 7 7 7 7 9 6 7 8 8 6 6 7 9 10 9 6 5 6 7 8 6 7 10 11 12 12 13 13 13 12 11 12 12 11
19 19 19 19 18 17 16 16 17 17 16 17 18 16 14 15 13 11 8 5 3 6 10 11 10 5 4 4 2 1 1 1 4 6 6 5 5 4 8 8 8 9 9 9 8 7 6 6 6 7 7 8 8 8 7 8 7 6 7 3 5 7 7 6 7 9 12 11 10 8 7 6 7 7 7 8 10 10 12 12 11 12 13 12 11 12 12 12
20 20 19 19 18 17 16 16 16 17 17 18 17 17 16 12 10 8 9 7 4 5 4 5 8 4 2 2 1 2 2 1 4 6 6 6 5 6 9 8 7 9 8 7 8 9 7 6 7 7 7 9 10 11 11 11 8 6 5 0 3 4 4 6 7 9 13 11 9 10 7 6 8 7 8 11 11 8 7 7 10 11 11 12 11 11 12 12
19 20 20 19 19 17 16 17 16 17 18 18 15 13 11 5 3 3 6 9 9 8 7 0 4 7 4 1 2 2 0 2 6 7 6 6 7 8 8 8 8 8 8 8 8 9 8 7 8 8 9 11 13 13 15 15 12 8 3 5 4 4 3 4 6 10 12 9 8 9 7 7 8 8 9 11 10 7 4 4 8 11 10 10 11 12 13 12
20 20 20 19 19 18 17 17 17 17 19 19 14 9 7 7 6 4 4 8 10 6 5 3 3 7 3 4 5 3 5 7 8 7 6 7 8 7 6 8 8 7 9 11 8 8 9 8 9 11 12 14 14 14 16 16 14 8 3 7 6 5 1 3 4 8 8 5 5 7 8 9 8 7 10 11 11 8 7 7 9 13 12 9 10 12 13 11
20 20 20 19 19 18 17 18 18 18 19 17 12 11 7 11 10 9 9 10 6 2 4 2 4 4 3 3 7 3 6 7 7 7 7 8 10 7 7 7 9 7 9 12 8 7 9 9 11 13 12 14 14 14 16 14 13 9 4 6 4 8 4 4 3 5 4 1 3 6 8 8 8 8 9 11 11 7 7 8 7 9 12 10 10 10 12 12
19 20 20 19 19 19 18 18 18 21 19 13 12 11 8 10 11 12 9 9 6 3 4 1 4 2 3 2 2 4 10 7 5 8 8 8 10 8 7 7 9 9 9 11 10 7 7 9 13 14 12 13 15 15 14 11 12 10 5 4 5 11 9 3 4 5 6 4 5 9 7 5 6 7 7 10 10 7 6 6 2 2 5 9 11 10 10 12
19 20 19 18 20 19 19 20 20 22 17 14 16 11 10 10 11 13 9 8 7 3 3 3 4 4 6 3 3 6 9 3 3 7 9 9 9 6 7 7 8 10 9 12 13 10 9 9 12 15 14 13 14 14 11 10 11 9 8 7 6 13 10 5 7 7 5 4 3 7 5 3 5 6 7 8 7 6 6 7 4 2 2 2 7 10 10 11
19 19 19 18 18 18 20 20 17 17 14 14 15 8 10 10 11 11 8 7 5 2 3 1 3 3 4 2 6 5 6 3 5 6 8 10 10 6 5 7 6 9 11 12 13 11 10 10 12 15 15 13 14 12 9 9 7 6 11 11 9 13 11 10 10 7 4 3 4 6 3 2 5 6 8 6 4 6 7 9 8 5 4 3 5 10 10 11
19 19 19 18 17 18 17 12 11 16 15 8 4 7 10 9 11 11 7 6 3 3 6 4 0 2 1 3 5 6 5 2 4 5 5 11 11 7 5 5 6 9 11 9 8 6 8 12 11 13 14 14 15 9 6 8 6 6 10 13 14 11 13 18 13 5 3 2 5 8 4 1 2 6 8 7 7 10 8 10 11 6 5 6 6 8 9 11
19 19 19 17 16 16 10 8 15 19 12 5 9 11 11 9 10 9 6 5 0 1 1 2 3 1 0 1 4 6 1 2 4 5 4 8 8 7 6 6 5 7 9 4 5 5 9 15 11 11 13 13 11 6 8 11 7 8 9 10 12 14 17 20 15 5 3 1 3 9 6 2 3 6 9 11 12 13 11 12 12 9 8 8 7 7 9 10
19 20 19 16 14 13 10 12 17 16 11 11 13 12 11 10 9 6 6 3 3 1 2 4 5 2 3 4 5 5 3 1 2 4 4 6 7 7 8 8 6 8 7 5 6 6 10 17 11 11 11 8 7 6 11 13 9 10 8 12 5 16 17 16 13 7 7 5 1 7 7 4 3 5 8 11 13 15 16 16 15 12 10 9 8 9 12 13
20 20 18 15 12 12 12 13 13 13 14 14 13 13 14 11 8 4 5 4 1 1 1 3 4 3 4 5 6 3 4 4 2 2 4 6 7 8 7 7 10 11 11 9 9 5 9 13 8 8 8 6 6 8 13 13 9 11 7 9 9 9 14 12 10 8 9 7 5 10 12 6 2 4 8 10 12 14 15 15 15 14 12 10 10 11 13 13
20 19 17 14 9 8 10 12 13 13 12 12 14 16 15 11 6 5 4 2 1 3 2 2 2 2 3 7 7 4 2 4 2 2 6 5 7 8 6 8 10 12 10 9 10 11 10 6 2 4 6 7 9 10 12 13 12 12 8 5 8 4 7 8 8 7 6 7 8 15 17 10 3 5 9 10 11 13 13 12 13 14 14 13 12 12 13 13
20 18 16 12 9 7 8 9 8 10 9 13 17 16 13 6 4 7 3 1 1 3 1 3 3 1 5 6 2 2 2 5 3 2 5 3 5 6 6 7 6 8 9 7 8 13 12 6 5 5 7 9 12 11 11 14 13 10 7 5 6 5 4 5 5 5 6 7 6 12 19 14 6 6 11 12 11 14 14 14 16 17 17 15 13 13 12 12
20 17 15 12 11 12 13 11 11 13 11 14 16 11 8 4 4 6 2 1 2 4 5 2 7 6 3 2 2 2 0 3 3 1 3 3 4 5 6 6 4 6 7 5 7 9 10 9 9 8 8 10 11 8 8 10 9 7 6 4 4 6 5 5 5 6 6 5 6 8 11 11 5 6 15 17 14 15 15 14 17 18 18 17 15 12 10 10
18 16 14 11 12 15 17 16 15 15 13 14 13 7 6 6 3 2 3 4 3 2 5 3 5 7 5 3 2 4 2 1 2 2 4 3 4 4 7 5 4 7 5 5 7 8 9 10 10 8 7 9 12 8 6 7 7 8 8 6 5 7 6 7 7 6 5 5 9 10 6 4 4 6 12 18 15 15 14 12 15 17 17 18 16 11 9 9
16 15 12 10 13 16 17 16 13 13 14 13 9 6 7 7 3 2 4 7 6 3 4 1 3 7 4 3 4 5 4 3 6 4 3 4 4 3 6 5 6 8 6 6 7 7 9 9 9 8 6 9 14 13 9 9 10 9 8 7 7 8 5 5 5 5 6 6 10 11 7 3 5 5 8 12 12 11 10 8 9 12 15 17 17 14 12 11
14 12 9 9 13 15 15 14 13 13 11 9 7 6 7 4 3 5 5 6 7 8 4 4 5 8 2 3 5 8 5 3 3 4 4 3 2 1 3 4 6 6 5 5 4 6 10 8 10 13 11 11 14 13 12 11 10 9 7 9 9 7 6 6 5 4 5 6 6 6 2 4 6 9 8 7 9 10 8 7 7 10 13 13 13 13 12 11
11 8 7 9 12 13 12 11 10 9 8 8 6 6 6 2 4 5 5 6 6 8 8 4 4 6 3 2 3 4 2 2 4 2 2 5 3 1 3 2 1 5 5 3 3 4 7 8 5 15 14 12 13 14 14 10 7 6 8 10 9 8 9 7 6 5 5 5 5 5 3 8 6 9 14 12 12 9 6 5 8 12 12 9 7 8 9 10
9 6 7 10 12 10 8 8 7 7 6 7 5 6 7 3 3 5 5 7 7 4 8 6 4 4 4 1 2 1 2 3 6 5 2 4 3 0 3 1 1 6 8 3 4 5 4 10 8 9 13 11 12 14 16 12 10 5 7 9 8 8 9 8 6 5 6 5 5 7 2 7 4 5 13 15 12 7 6 6 10 13 14 12 9 9 11 11
12 9 9 11 9 6 6 7 7 7 5 6 6 7 8 2 3 6 6 7 8 5 5 5 3 3 4 2 2 3 2 3 4 2 4 3 3 5 7 4 2 3 6 3 3 3 2 7 9 4 8 9 11 11 13 13 14 11 5 6 7 8 8 6 7 5 6 6 5 7 3 4 2 2 8 11 12 12 11 11 12 14 14 13 10 10 13 12
11 10 8 8 8 5 6 6 6 8 5 7 7 3 4 3 4 4 6 6 6 4 4 3 2 3 4 4 4 3 1 1 3 5 4 1 2 5 8 5 3 3 6 6 5 3 1 4 6 3 8 10 9 8 8 9 12 13 10 8 6 6 6 7 6 4 6 6 5 5 3 3 3 1 3 5 13 14 12 11 13 14 13 12 11 11 14 13
8 8 4 11 10 6 6 6 7 7 5 8 8 2 2 4 3 3 3 6 5 4 3 4 2 4 5 5 5 3 2 4 2 4 4 3 4 5 4 3 4 5 8 9 7 5 1 3 4 5 8 10 8 7 8 8 9 10 9 8 7 6 6 6 6 6 7 6 3 3 2 2 2 0 2 9 15 13 9 7 9 12 14 13 13 13 14 12
8 7 4 12 10 7 6 7 7 6 7 8 9 4 3 6 7 4 1 1 4 2 2 5 4 3 4 4 3 3 4 3 3 1 0 1 2 1 1 3 5 6 7 7 6 3 1 1 4 7 6 8 7 7 10 12 11 10 9 9 9 8 7 6 6 7 7 5 4 4 3 3 1 1 6 12 14 13 12 9 8 10 13 13 13 14 14 13
8 5 6 13 9 7 7 7 5 7 7 2 2 1 3 2 8 7 2 2 2 0 2 4 4 3 5 4 2 4 5 3 2 2 1 2 1 2 3 2 6 5 5 6 3 4 5 2 3 6 6 9 13 10 10 15 16 13 11 10 9 6 6 6 6 6 6 6 6 7 3 3 1 1 8 12 11 11 12 10 8 8 11 12 11 12 13 14
7 4 7 13 9 8 7 7 6 9 4 4 1 0 4 1 6 3 4 3 2 2 3 3 3 2 3 2 4 5 3 3 5 4 1 2 1 4 3 3 7 5 3 4 2 4 4 2 2 6 7 9 15 17 12 15 15 12 11 11 10 8 7 8 7 5 6 6 7 7 3 2 4 5 7 11 8 6 6 6 6 5 6 9 9 7 7 9
6 7 5 9 7 8 7 7 6 7 4 2 2 2 2 3 5 4 6 6 3 4 5 4 3 3 3 3 6 6 2 2 5 5 4 1 3 3 1 3 6 5 4 4 4 4 3 1 1 4 7 6 8 11 8 10 11 9 10 13 13 13 15 13 9 7 6 6 7 6 2 4 2 2 7 10 5 4 3 1 3 3 4 8 9 5 2 2
7 8 4 6 6 6 7 8 6 9 7 1 3 5 5 5 3 2 7 6 3 5 6 4 3 4 5 5 5 6 3 2 3 4 5 2 2 1 0 2 5 4 7 7 6 6 3 1 1 2 4 5 5 5 5 4 6 8 10 12 13 15 17 15 8 6 5 7 10 4 5 7 7 8 12 13 7 4 3 4 1 2 4 8 10 8 4 2
5 6 4 5 6 5 6 7 7 10 7 2 2 3 4 6 5 3 5 5 2 4 7 5 4 4 4 5 6 6 5 3 1 2 4 4 5 3 1 4 7 4 8 5 4 5 5 2 2 3 3 6 8 9 12 10 10 8 10 11 12 15 16 13 8 7 6 6 5 3 10 12 11 11 14 15 12 9 6 2 2 1 3 6 9 10 9 6
4 5 6 2 3 4 6 7 8 8 5 4 1 2 4 6 2 5 4 2 2 4 6 4 4 5 3 5 6 6 7 6 5 6 6 4 3 5 4 7 7 6 6 6 5 3 6 3 3 5 6 9 11 14 15 13 13 10 7 11 13 13 17 15 11 10 9 6 2 5 9 11 11 11 11 12 11 11 12 10 5 3 4 7 7 8 8 6
5 6 6 3 2 5 4 4 6 7 5 4 2 1 4 6 4 4 5 1 1 4 4 2 4 5 5 4 5 4 5 6 4 5 7 4 3 6 6 8 9 2 1 7 4 3 5 4 2 5 7 10 12 14 14 11 12 12 9 12 18 13 11 13 15 14 12 7 3 10 12 10 10 10 9 9 9 9 9 11 11 8 7 9 8 7 8 6
5 6 6 6 6 6 3 4 5 7 7 4 1 2 3 6 8 5 1 2 4 1 3 6 5 4 6 6 4 3 4 4 2 3 5 7 5 5 4 4 7 7 6 7 3 1 3 3 3 6 8 10 12 12 12 11 7 8 11 16 21 22 22 18 16 13 8 8 5 14 18 13 8 8 8 8 8 8 7 8 10 11 8 8 9 7 7 7
5 5 7 8 9 8 7 5 4 6 4 2 1 4 3 6 9 3 1 4 6 3 2 8 6 3 6 5 3 4 3 4 2 2 2 6 5 4 3 3 6 6 5 6 3 1 0 1 4 7 6 7 10 13 11 7 4 8 14 18 20 20 22 20 14 7 9 12 9 12 16 12 7 7 9 8 7 8 8 8 8 8 7 8 11 8 7 9
10 10 9 7 6 6 8 7 4 6 4 3 4 4 4 7 6 3 2 1 5 7 5 6 7 4 4 4 4 5 4 2 3 3 6 6 3 2 2 3 6 6 4 4 3 1 2 1 2 5 5 4 8 13 10 4 3 6 11 15 17 15 14 14 13 13 13 12 10 9 9 6 6 8 8 7 7 6 7 6 5 6 4 2 8 9 6 8
13 14 11 7 6 5 6 7 6 6 5 5 5 4 5 7 3 2 1 1 4 8 6 7 7 4 4 4 2 4 5 5 8 5 3 5 4 4 4 5 6 5 4 4 3 3 4 2 1 2 3 4 5 9 10 4 2 3 6 6 7 8 8 10 11 14 14 11 8 6 4 2 4 5 6 7 7 6 7 6 5 7 7 6 6 6 5 7
Wind_Direction
346 344 342 340 340 338 336 334 331 330 327 325 322 319 318 315 313 312 311 308 305 305 309 314 316 320 327 333 330 330 331 315 299 275 244 248 253 247 253 242 243 253 239 220 228 233 220 220 231 237 241 244 240 240 252 247 234 255 233 219 259 250 279 139 145 169 133 127 145 157 170 147 138 138 147 167 153 127 145 144 134 137 128 120 125 132 134 135
346 344 342 339 338 336 334 332 330 330 326 324 320 318 317 313 312 312 313 310 305 307 312 315 316 321 328 333 330 336 334 309 286 271 252 247 250 249 252 249 253 246 215 219 229 226 222 221 221 227 235 242 241 230 236 233 189 251 266 272 276 233 111 98 127 145 139 140 149 155 166 155 147 158 158 149 139 144 155 138 129 124 117 120 130 135 136 138
345 343 340 339 337 336 333 332 331 329 326 324 322 319 316 313 313 313 316 315 310 311 314 318 319 322 332 331 330 345 329 303 279 270 258 238 236 245 255 256 253 237 216 221 227 226 230 236 225 225 235 243 244 229 226 210 171 238 225 264 265 155 100 94 130 158 146 139 145 150 153 156 162 165 158 148 146 150 145 131 125 122 125 131 135 138 140 141
345 342 341 340 339 338 335 333 331 329 327 325 323 320 318 316 315 316 318 317 317 320 322 325 322 324 335 327 334 354 318 292 276 79 108 207 225 242 254 254 242 228 221 226 238 243 240 246 241 234 243 250 248 234 244 246 212 212 204 259 124 116 100 96 138 159 139 135 141 143 132 153 177 168 165 158 147 140 133 128 130 133 135 137 139 142 144 143
346 343 343 342 341 339 337 336 333 332 331 328 327 324 321 318 317 319 318 320 326 329 332 329 326 331 334 328 346 342 303 283 91 96 103 198 220 249 261 242 223 215 218 226 245 253 243 246 247 241 246 255 255 242 248 251 235 240 265 318 73 112 110 103 145 148 131 130 134 147 139 149 154 128 195 151 133 134 133 131 134 136 138 140 143 144 145 146
349 348 347 344 342 340 340 340 336 335 334 333 331 327 323 321 320 320 318 323 328 332 338 331 331 334 331 335 342 314 280 285 67 104 62 310 248 274 263 224 207 202 213 224 244 250 237 239 245 240 236 247 257 253 249 251 261 292 329 43 73 111 108 104 143 130 123 135 139 148 132 132 131 124 123 109 141 165 138 137 136 136 139 141 142 145 148 148
354 353 349 345 344 343 342 341 341 339 338 336 333 330 326 324 322 320 318 321 327 336 339 332 330 327 331 334 309 272 254 277 29 99 5 326 271 287 241 202 191 192 208 221 236 240 228 232 238 237 240 243 248 250 255 261 267 278 36 66 79 97 99 111 142 124 124 137 133 114 121 152 134 124 104 92 253 190 141 139 137 137 141 141 144 147 147 148
357 354 349 346 344 344 344 343 345 343 342 340 336 335 330 329 324 319 319 320 330 337 338 335 327 321 341 336 295 257 242 267 74 68 328 318 293 274 191 181 187 192 207 220 232 237 227 231 236 238 241 242 257 273 268 266 262 280 57 75 89 91 95 116 139 130 130 125 113 88 117 151 122 122 124 172 238 176 140 142 137 140 142 143 147 146 148 151
358 356 351 347 346 346 345 345 346 345 344 340 336 334 327 325 318 315 319 323 332 336 339 333 313 320 344 323 287 276 257 22 63 46 329 311 296 191 173 179 191 196 209 222 235 239 229 231 236 241 250 259 289 302 268 262 289 90 89 88 100 100 102 127 139 131 124 115 117 102 106 132 107 134 141 172 200 151 143 144 138 145 144 147 146 144 151 149
359 357 352 349 348 347 347 346 346 345 343 338 334 328 321 319 315 316 318 325 335 332 339 327 310 326 315 281 271 279 62 24 358 24 100 151 161 166 182 192 192 200 214 222 232 237 232 235 240 248 264 272 289 289 256 221 88 93 106 104 100 108 119 153 144 128 114 107 130 123 124 141 116 166 141 155 165 146 149 144 142 149 146 148 144 146 154 147
358 356 352 350 350 348 347 347 346 344 342 338 331 323 319 316 311 314 315 324 330 328 334 319 307 315 297 278 271 284 40 342 321 329 144 160 165 175 196 201 195 206 219 227 233 236 234 240 257 262 259 270 273 270 249 178 140 108 110 103 96 107 121 143 134 124 117 119 154 132 112 90 78 135 137 145 153 152 149 143 149 151 146 149 143 147 152 145
357 355 353 351 350 348 347 346 345 342 340 336 328 319 313 310 308 311 311 315 318 318 321 307 317 323 299 277 253 273 347 307 306 302 199 175 186 192 202 206 203 211 222 231 230 232 239 243 258 260 261 296 267 264 268 176 153 129 113 103 101 105 112 131 129 123 110 143 173 141 103 80 88 135 143 151 154 154 149 148 154 150 147 149 144 149 149 144
355 353 352 351 350 348 346 345 343 340 338 334 328 318 308 306 307 310 309 309 306 307 308 298 312 303 286 281 259 325 313 284 282 260 216 194 205 203 208 215 210 215 225 238 238 230 237 241 251 262 274 283 266 290 323 239 185 145 120 115 118 113 137 155 138 134 132 161 174 168 126 126 146 150 154 159 154 154 155 155 156 150 151 147 148 154 148 147
353 351 351 351 350 348 346 344 341 337 332 330 327 320 314 309 309 312 309 306 301 290 288 290 294 284 271 270 327 341 278 258 246 221 209 201 208 204 213 223 215 217 225 242 257 244 232 242 258 269 272 267 272 308 305 249 216 167 129 129 139 136 159 165 166 162 162 160 144 89 141 149 161 159 162 160 154 163 163 160 158 155 153 147 153 157 148 150
350 349 348 348 349 347 344 342 339 332 326 325 324 323 322 313 310 311 307 306 298 279 285 291 268 248 266 248 258 350 247 221 217 203 203 204 209 210 211 216 213 218 228 239 259 260 238 247 258 256 257 254 263 283 276 243 226 192 158 162 172 158 143 165 189 181 167 147 136 232 137 142 165 170 182 167 158 171 168 163 163 158 157 152 157 159 151 151
347 346 346 346 348 346 342 341 338 330 321 319 319 322 323 315 307 306 305 301 287 276 280 282 237 222 278 317 131 247 216 205 191 185 207 209 211 212 200 207 209 217 226 225 256 278 227 229 243 245 254 250 244 247 246 235 222 212 218 206 164 150 147 173 187 183 182 157 163 216 154 138 164 170 190 175 166 173 167 170 169 161 159 157 160 161 154 155
345 344 343 344 345 344 341 338 337 329 317 314 318 320 319 310 297 297 299 292 298 277 250 269 264 237 266 323 180 196 182 151 154 181 211 218 225 207 186 203 210 210 216 214 241 270 211 217 235 240 245 243 234 231 238 234 213 211 231 215 147 147 156 167 170 181 196 176 168 186 166 157 161 167 187 180 174 173 168 175 175 166 160 160 167 163 157 160
344 341 340 341 342 341 338 334 336 330 315 310 314 318 321 307 292 293 289 286 301 255 245 257 273 277 253 269 259 170 68 113 180 191 203 222 248 211 190 206 204 198 212 215 221 230 217 210 220 232 226 225 232 226 224 231 227 217 230 235 129 149 167 175 171 176 183 180 174 171 168 165 159 174 189 182 185 178 172 177 176 172 164 165 173 164 158 165
342 338 339 338 338 337 335 333 333 330 319 309 313 321 318 301 285 279 253 241 234 252 280 218 223 290 328 275 39 66 17 63 189 197 203 217 223 208 204 209 203 199 208 211 203 206 215 212 216 230 222 217 222 224 234 235 235 231 218 215 95 152 197 185 165 170 174 175 180 169 165 175 166 180 189 181 184 174 163 179 180 177 169 169 176 165 162 169
339 336 336 335 335 334 332 330 328 330 321 308 313 315 302 299 294 253 219 230 239 264 314 12 235 301 315 131 80 74 22 217 219 207 203 214 205 202 203 202 203 206 214 213 197 194 213 223 216 222 225 224 220 223 242 244 243 249 184 125 137 158 192 176 151 173 178 173 183 166 152 180 173 176 194 182 177 170 147 177 185 178 174 178 180 167 166 171
336 334 334 333 332 329 328 328 324 326 319 309 309 294 303 8 2 346 351 269 239 238 305 6 322 306 351 345 310 249 192 210 225 205 186 207 212 199 183 199 206 200 218 225 207 186 210 230 223 224 227 232 233 225 237 247 250 260 106 116 137 122 75 274 168 172 185 174 178 162 151 182 178 172 200 187 175 184 171 171 188 183 176 181 186 171 168 171
334 332 331 332 329 325 325 322 319 318 312 303 285 262 299 7 355 337 338 294 261 204 249 241 252 227 131 301 286 244 212 206 200 188 177 203 220 205 169 196 219 206 210 223 218 189 206 233 231 230 229 234 242 232 232 243 244 241 131 119 134 113 108 274 231 165 192 170 157 183 170 172 175 175 204 198 182 185 179 178 187 187 178 178 189 177 170 174
334 329 328 331 326 323 320 317 317 310 301 282 261 272 321 357 343 332 323 294 288 253 232 257 297 279 111 258 209 205 237 227 189 172 169 211 228 222 208 210 223 222 209 212 221 208 206 226 230 236 235 232 241 237 230 233 235 229 162 148 168 144 144 205 210 176 207 215 173 189 176 144 172 180 202 211 196 176 180 198 205 233 193 179 191 184 171 176
333 328 327 328 322 320 319 316 309 296 284 258 254 288 345 349 338 338 326 290 274 276 30 17 308 11 29 3 122 203 234 223 225 170 158 221 226 202 233 238 226 229 219 210 223 230 228 221 216 232 237 229 240 239 229 230 232 220 207 220 176 159 169 168 166 168 197 231 169 167 162 144 188 186 193 207 203 180 182 205 224 267 263 207 198 187 176 184
332 327 325 326 321 320 320 313 299 288 276 249 246 285 344 346 346 342 319 284 264 202 122 207 286 39 45 124 145 235 259 209 218 163 154 230 235 200 227 247 234 237 226 209 221 234 238 231 208 221 233 229 235 235 228 237 240 226 229 229 185 174 175 149 153 157 161 227 188 165 169 174 188 198 194 179 190 205 189 202 217 217 228 241 205 187 186 194
331 326 323 323 319 319 321 311 310 312 297 269 278 334 344 352 348 336 308 277 262 166 161 172 77 69 152 148 157 247 267 200 159 131 179 231 246 258 248 231 212 237 244 213 219 247 244 245 223 213 227 226 228 232 220 228 240 240 235 224 199 167 130 136 151 160 164 213 183 177 194 147 186 222 200 170 191 210 194 200 216 211 211 217 199 185 188 195
330 325 321 320 316 318 319 306 320 322 308 343 10 341 342 354 337 325 295 269 250 115 207 105 80 72 169 109 240 254 338 45 130 140 223 221 226 265 259 239 210 233 263 234 209 232 241 251 234 210 233 233 219 212 212 216 226 236 252 257 210 145 124 145 155 173 194 126 155 189 208 208 213 222 195 181 192 202 200 203 210 207 210 213 202 190 190 195
328 324 319 316 313 308 297 294 310 310 305 342 350 333 342 339 318 306 282 313 47 319 311 68 72 277 219 150 250 266 84 6 192 146 254 227 208 249 247 253 251 226 242 261 240 191 212 244 230 202 237 244 207 212 226 222 231 241 273 314 258 151 150 162 157 173 166 124 186 208 212 229 214 194 185 189 195 200 203 201 203 204 206 211 207 199 196 194
327 322 315 314 308 297 289 282 287 289 298 321 330 329 327 308 298 278 264 321 13 205 21 82 133 201 224 195 221 224 147 214 232 98 270 241 218 247 262 284 283 246 222 236 256 215 205 240 227 196 230 245 213 225 237 230 238 245 248 318 307 163 162 174 174 184 166 163 207 196 199 220 227 186 181 191 204 205 202 198 201 201 197 207 208 202 202 193
326 319 312 310 298 294 296 272 268 281 290 310 323 321 307 289 280 267 270 334 320 97 72 232 150 122 267 246 205 137 128 208 161 191 239 237 224 231 258 281 286 273 239 207 242 263 252 243 185 194 228 237 233 226 233 234 237 242 216 238 283 227 186 211 204 190 195 217 208 184 189 196 189 200 190 195 208 201 194 192 196 197 191 199 205 201 206 196
324 315 306 299 281 281 283 260 285 312 301 311 321 312 294 273 247 273 302 39 299 10 298 194 73 332 261 274 235 117 212 196 131 204 214 209 225 216 234 238 243 274 261 209 231 260 258 226 175 218 233 236 243 230 224 233 232 237 222 200 243 244 239 262 233 199 223 241 221 183 181 186 198 201 195 204 209 195 194 193 191 194 189 190 201 198 200 200
322 310 298 288 272 264 257 263 315 329 317 317 315 301 287 271 246 268 310 142 227 341 326 38 38 339 298 298 298 39 60 160 110 254 226 233 229 216 237 226 205 256 259 232 227 232 238 225 190 195 222 237 246 229 213 234 234 232 230 197 230 234 209 238 237 216 221 237 256 222 189 195 195 164 184 194 199 195 197 199 191 192 189 186 195 194 196 205
319 303 291 281 268 259 257 269 297 309 313 315 303 283 280 291 294 290 343 4 83 27 313 350 15 337 348 337 339 22 359 89 59 228 202 252 262 245 255 251 253 269 281 277 251 216 214 218 199 191 204 225 239 232 201 214 209 218 229 200 222 239 205 216 230 225 242 249 248 242 219 194 112 127 181 181 189 196 191 200 195 190 189 185 187 188 193 207
313 295 284 273 263 257 257 264 274 289 305 305 289 278 278 286 319 18 4 9 32 354 287 72 327 292 287 308 354 10 304 6 10 310 222 233 240 237 256 243 244 261 277 278 265 236 222 214 201 210 211 202 225 244 236 216 196 203 239 225 225 253 241 233 234 220 246 258 239 224 211 187 129 162 191 172 182 191 177 194 194 185 190 185 183 188 190 195
306 285 271 263 261 257 255 258 262 273 291 292 279 282 279 283 336 6 15 357 351 333 317 75 342 300 296 313 356 24 353 19 18 292 278 285 244 201 277 242 226 254 266 257 278 277 258 239 184 192 220 209 208 241 252 242 216 187 217 234 222 245 264 271 271 251 266 286 266 236 174 73 115 145 149 163 197 195 170 178 185 183 186 179 181 189 190 185
298 267 244 246 249 249 243 242 252 259 273 283 282 287 294 350 351 351 14 334 333 337 318 352 357 316 342 320 336 37 40 12 5 326 291 319 334 151 262 264 259 306 300 263 291 290 269 280 196 181 212 212 197 235 249 251 252 179 192 231 229 242 262 268 261 238 257 280 277 264 103 97 128 135 127 157 195 191 162 176 199 191 174 164 179 192 194 184
295 238 219 233 231 228 220 216 237 249 260 278 284 298 307 5 6 343 9 325 309 308 297 320 15 322 317 13 341 346 114 60 340 321 349 329 326 171 272 313 63 303 302 293 287 278 267 303 295 197 204 200 185 229 248 250 264 229 185 209 216 240 260 272 267 225 221 244 261 265 180 118 164 139 131 159 172 159 174 207 212 194 170 167 182 194 196 187
303 262 241 232 209 193 211 216 238 250 257 272 264 270 283 306 32 358 1 326 302 303 308 338 37 314 312 17 328 299 76 113 229 261 39 353 326 339 323 336 85 284 296 276 246 274 278 293 294 205 194 201 178 209 242 244 253 260 250 221 206 219 228 239 261 251 232 229 231 244 213 90 23 106 154 174 154 153 184 192 190 185 171 168 175 190 193 184
292 271 247 200 174 180 219 220 237 250 250 263 264 246 263 286 62 25 346 326 307 312 333 5 36 293 316 346 321 307 0 280 200 130 97 279 264 287 293 319 8 330 319 302 275 297 298 265 284 210 198 213 187 192 225 224 236 253 267 264 240 233 228 218 225 239 250 244 233 237 209 94 47 99 201 165 138 158 183 173 171 175 172 172 173 186 189 182
260 264 210 163 168 181 205 225 242 251 244 256 272 286 303 315 33 65 1 330 309 298 325 355 347 308 331 334 314 318 303 300 329 127 153 186 192 222 265 343 340 324 327 312 297 304 257 215 281 277 236 227 200 190 214 218 219 229 242 242 228 223 226 225 215 212 239 254 254 256 226 127 89 141 52 87 119 154 175 166 173 170 171 178 173 176 183 181
267 279 181 157 167 176 197 231 237 241 244 250 265 283 7 341 325 331 35 273 289 290 314 319 305 301 329 316 298 312 292 302 340 339 73 121 180 195 23 324 309 327 325 294 280 309 323 213 296 301 279 254 233 202 211 224 220 211 222 235 230 220 210 219 230 216 224 246 251 250 204 135 147 134 84 90 118 152 165 164 169 164 168 177 171 173 179 179
266 279 163 156 167 183 209 242 246 250 254 241 258 242 77 338 289 306 323 245 292 169 208 295 315 326 327 320 328 315 295 309 340 312 75 140 197 77 92 286 303 325 317 296 314 11 0 331 289 287 276 273 284 282 238 230 229 215 214 236 251 238 203 208 237 234 231 226 229 251 228 135 293 10 100 106 124 149 162 163 161 163 169 171 167 168 173 177
251 272 154 156 181 201 224 256 252 254 256 90 89 227 84 249 259 309 351 320 327 322 285 307 326 317 310 304 303 300 308 339 326 310 285 178 103 66 73 327 314 305 299 310 8 30 350 308 299 299 291 282 292 298 272 232 232 226 212 223 243 247 234 229 229 238 252 228 215 239 223 141 304 327 86 102 113 132 154 161 154 160 162 158 157 156 162 174
288 286 167 157 207 219 232 253 249 267 292 71 262 251 108 295 292 334 340 337 344 325 318 325 332 313 316 325 302 299 336 323 305 315 309 289 93 80 31 330 316 318 9 19 5 356 338 355 352 293 293 286 275 288 273 215 220 240 222 207 211 231 251 251 233 230 256 268 270 264 190 127 242 273 97 96 84 66 55 76 122 150 168 158 153 137 117 160
300 274 191 157 205 222 240 262 283 294 296 304 268 257 221 228 244 291 301 305 316 317 314 325 338 296 293 308 294 286 281 255 294 319 297 301 66 68 9 323 299 342 36 22 345 317 302 32 18 257 288 296 266 281 301 242 236 252 232 213 202 214 245 256 241 235 252 282 300 304 128 137 163 150 122 118 118 85 12 331 13 132 165 156 144 135 137 160
294 269 240 174 181 210 242 261 276 277 282 290 253 260 239 221 165 145 267 265 253 298 301 315 326 285 291 316 303 295 296 276 337 344 316 359 358 316 57 300 292 50 56 354 308 292 286 255 215 226 245 271 275 296 305 295 283 260 226 235 225 205 225 246 240 239 228 230 285 66 122 143 152 141 128 130 142 150 161 223 315 53 114 121 129 142 156 164
279 280 287 263 185 215 228 233 238 249 298 341 288 181 226 254 171 143 214 262 3 297 283 284 292 287 309 324 316 332 334 321 357 5 351 14 306 292 348 317 300 98 112 253 229 223 279 272 231 246 254 265 274 283 287 285 289 284 252 271 272 224 214 222 228 251 251 215 171 99 126 142 137 131 129 131 142 154 155 159 176 193 148 125 126 142 146 146
272 271 290 316 253 227 225 252 247 233 241 245 205 163 242 271 275 197 194 175 320 281 277 257 270 287 303 320 324 339 334 322 358 9 339 324 267 301 337 314 303 15 208 260 226 203 285 309 312 286 279 278 274 270 270 270 283 296 306 323 329 319 276 245 226 236 255 252 117 100 113 122 119 121 128 138 150 159 157 153 159 175 164 137 131 140 141 141
291 286 312 333 290 256 275 324 298 266 252 217 150 336 282 264 261 239 160 288 274 340 344 301 300 311 312 337 343 308 322 331 11 64 339 308 300 316 327 305 307 327 322 303 309 13 317 318 317 293 267 271 282 273 260 257 276 331 355 358 358 351 330 295 248 234 275 312 28 91 99 101 107 119 123 135 150 151 148 148 158 171 163 134 128 137 143 147
321 316 327 327 307 293 290 284 260 264 278 94 184 266 266 270 279 307 62 261 285 9 328 281 302 323 310 341 342 294 354 9 334 123 224 268 288 321 334 324 301 309 325 309 305 75 179 271 314 297 260 264 289 278 262 269 336 27 23 11 2 355 343 325 303 315 355 352 14 82 98 96 98 107 106 116 139 147 147 150 154 159 159 152 149 151 150 146
339 326 322 305 295 302 291 274 251 248 229 173 219 225 215 243 265 336 39 247 307 318 300 306 334 332 289 299 291 299 7 21 282 234 223 249 283 283 231 220 264 290 324 308 300 306 257 273 338 304 276 271 281 278 280 310 33 43 34 18 4 358 347 336 346 10 15 4 15 60 87 84 93 109 113 127 147 145 133 122 97 81 51 86 136 141 148 136
345 331 330 305 280 291 282 263 250 242 236 250 240 181 197 234 215 68 340 255 279 277 290 332 336 316 281 270 286 341 359 328 305 306 285 289 291 259 238 230 246 274 319 309 306 297 266 255 298 301 288 283 283 290 294 286 140 59 34 23 15 14 344 326 358 22 18 9 20 55 90 97 103 122 135 133 125 100 85 72 61 83 69 35 69 110 120 105